Location: Ozark
(37.5425°N, 88.7628°W)
Time: 18:19:48
(UTC+00:00)

Cosmos 2278 Rocket - Pass Details

Date: 26 January 2020
Orbit: 842 x 845 km, 71.0° (Epoch: 21 February)

Event Time Altitude Azimuth Distance (km) Brightness Sun altitude
Rises 12:30:29 0° 351° (N) 3,406 5.1 -6.9°
Reaches altitude 10° 12:33:34 10° 7° (N) 2,468 4.5 -6.4°
Maximum altitude 12:37:46 21° 55° (NE) 1,814 4.4 -5.6°
Drops below altitude 10° 12:41:57 10° 103° (ESE) 2,460 6.5 -4.8°
Sets 12:45:00 0° 120° (ESE) 3,391 7.7 -4.2°
